TimeEST,TemperatureF,Dew PointF,Humidity,Sea Level PressureIn,VisibilityMPH,Wind Direction,Wind SpeedMPH,Gust SpeedMPH,PrecipitationIn,Events,Conditions,WindDirDegrees,DateUTC
12:53 AM,72.0,60.1,66,30.16,10.0,ESE,5.8,-,N/A,,Scattered Clouds,110,2013-01-14 05:53:00
1:53 AM,71.1,60.1,68,30.16,10.0,ESE,4.6,-,N/A,,Clear,120,2013-01-14 06:53:00
2:53 AM,68.0,59.0,73,30.16,10.0,Calm,Calm,-,N/A,,Partly Cloudy,0,2013-01-14 07:53:00
3:53 AM,66.9,60.1,79,30.15,10.0,Calm,Calm,-,N/A,,Mostly Cloudy,0,2013-01-14 08:53:00
4:53 AM,72.0,62.1,71,30.15,10.0,SE,5.8,-,N/A,,Mostly Cloudy,130,2013-01-14 09:53:00
5:53 AM,70.0,61.0,73,30.15,10.0,ESE,3.5,-,N/A,,Partly Cloudy,120,2013-01-14 10:53:00
6:53 AM,66.0,60.1,81,30.17,10.0,East,3.5,-,N/A,,Scattered Clouds,90,2013-01-14 11:53:00
7:53 AM,69.1,63.0,81,30.18,10.0,Calm,Calm,-,N/A,,Partly Cloudy,0,2013-01-14 12:53:00
8:53 AM,75.9,61.0,60,30.18,10.0,ESE,13.8,-,N/A,,Partly Cloudy,120,2013-01-14 13:53:00
9:53 AM,78.1,61.0,56,30.20,10.0,ESE,13.8,-,N/A,,Scattered Clouds,120,2013-01-14 14:53:00
10:53 AM,78.1,62.1,58,30.19,10.0,ESE,12.7,-,N/A,,Mostly Cloudy,110,2013-01-14 15:53:00
11:53 AM,78.1,61.0,56,30.17,10.0,SE,11.5,-,N/A,,Mostly Cloudy,130,2013-01-14 16:53:00
12:53 PM,79.0,61.0,54,30.16,10.0,SE,11.5,-,N/A,,Partly Cloudy,140,2013-01-14 17:53:00
1:53 PM,80.1,61.0,52,30.14,10.0,SE,13.8,20.7,N/A,,Clear,130,2013-01-14 18:53:00
2:53 PM,80.1,62.1,54,30.15,10.0,SE,10.4,-,N/A,,Scattered Clouds,140,2013-01-14 19:53:00
3:53 PM,78.1,62.1,58,30.15,10.0,SE,12.7,-,N/A,,Clear,140,2013-01-14 20:53:00
4:53 PM,75.9,62.1,62,30.17,10.0,ESE,11.5,-,N/A,,Partly Cloudy,120,2013-01-14 21:53:00
5:53 PM,73.9,63.0,68,30.18,10.0,East,8.1,-,N/A,,Partly Cloudy,100,2013-01-14 22:53:00
6:53 PM,73.0,63.0,71,30.19,10.0,East,5.8,-,N/A,,Clear,100,2013-01-14 23:53:00
7:53 PM,72.0,63.0,73,30.19,10.0,NE,3.5,-,N/A,,Clear,50,2013-01-15 00:53:00
8:53 PM,70.0,63.0,78,30.19,10.0,ENE,3.5,-,N/A,,Clear,70,2013-01-15 01:53:00
9:53 PM,71.1,64.0,78,30.18,10.0,ESE,5.8,-,N/A,,Clear,110,2013-01-15 02:53:00
10:53 PM,71.1,63.0,75,30.17,10.0,ESE,4.6,-,N/A,,Clear,120,2013-01-15 03:53:00
11:53 PM,68.0,62.1,81,30.16,10.0,Calm,Calm,-,N/A,,Clear,0,2013-01-15 04:53:00